EW7237 Weather Reports


time (UTC)temp
C
wind
direction
speed
KPH
gust
KPH
rain 1hr
cm
rain 24hr
cm
rain mn
cm
humidity
%
barometer
mb
20260507081551 12 121 1.6 16.1 0.00 0.51 0.03 71 1012.5
20260507080020 12 120 0.0 14.5 0.00 0.51 0.03 71 1012.5
20260507074558 12 120 0.0 6.4 0.00 0.51 0.03 72 1012.5
20260507073018 11 120 0.0 12.9 0.00 0.51 0.03 72 1012.4
20260507071547 12 121 0.0 6.4 0.00 0.51 0.03 71 1012.2
20260507070045 12 120 0.0 12.9 0.00 0.51 0.03 72 1012.1
20260507064608 12 121 0.0 16.1 0.00 0.51 0.03 74 1012.2
20260507063009 11 120 0.0 1.6 0.03 0.51 0.03 78 1012.1
20260507061521 10 120 0.0 0.0 0.03 0.51 0.03 83 1012.0
20260507060037 9 120 0.0 1.6 0.03 0.51 0.03 87 1011.9
20260507054608 8 121 0.0 0.0 0.03 0.51 0.03 92 1011.8
20260507053036 8 120 0.0 0.0 0.00 0.51 0.00 95 1011.7
20260507051547 7 120 0.0 0.0 0.00 0.51 0.00 96 1011.4
20260507050011 7 120 0.0 0.0 0.00 0.51 0.00 96 1011.3
20260507044524 7 120 0.0 0.0 0.00 0.51 0.00 96 1011.2
20260507043041 7 120 0.0 0.0 0.00 0.51 0.00 96 1010.8
20260507041612 7 121 0.0 0.0 0.00 0.51 0.00 96 1010.8
20260507040013 6 120 0.0 0.0 0.00 0.51 0.00 96 1010.6
20260507034544 6 121 0.0 0.0 0.00 0.51 0.00 95 1010.5
20260507033102 6 121 0.0 0.0 0.00 0.51 0.00 95 1010.5
20260507031507 7 121 0.0 0.0 0.00 0.51 0.00 95 1010.5
20260507030024 7 120 0.0 0.0 0.00 0.51 0.00 95 1010.5
20260507024544 6 120 0.0 0.0 0.00 0.51 0.00 95 1010.4
20260507023112 6 121 0.0 0.0 0.00 0.51 0.00 95 1010.4
20260507021508 6 120 0.0 0.0 0.00 0.51 0.00 95 1010.3
20260507020027 6 121 0.0 0.0 0.00 0.51 0.00 95 1010.1
20260507014555 6 120 0.0 0.0 0.00 0.51 0.00 95 1010.0
20260507013030 6 120 0.0 0.0 0.00 0.51 0.00 95 1009.9
20260507011540 6 120 0.0 0.0 0.00 0.51 0.00 94 1009.9
20260507010051 6 121 0.0 0.0 0.00 0.51 0.00 94 1009.9
20260507004603 6 120 0.0 0.0 0.00 0.51 0.00 94 1009.9
20260507003017 6 120 0.0 0.0 0.00 0.51 0.00 93 1009.9
20260507001528 7 121 0.0 0.0 0.00 0.51 0.00 92 1009.9
20260507000042 7 121 0.0 0.0 0.00 0.51 0.00 91 1010.0
20260506234553 8 121 0.0 0.0 0.00 0.51 0.00 90 1010.1
20260506233001 9 121 0.0 0.0 0.00 0.51 0.00 86 1010.1
20260506231543 8 120 0.0 0.0 0.00 0.51 0.00 86 1009.9
20260506230054 8 120 0.0 0.0 0.00 0.51 0.00 86 1009.9
20260506224521 9 120 0.0 0.0 0.00 0.51 0.00 85 1010.0
20260506223120 9 121 0.0 0.0 0.00 0.51 0.00 85 1009.8
20260506221602 9 120 0.0 0.0 0.00 0.51 0.00 85 1009.7
20260506220007 9 121 0.0 0.0 0.00 0.51 0.00 85 1009.6
20260506214523 9 121 0.0 0.0 0.00 0.61 0.51 85 1009.6
20260506213040 9 120 0.0 0.0 0.00 0.61 0.51 87 1009.4
20260506211558 8 120 0.0 0.0 0.00 0.61 0.51 89 1009.3
20260506210008 8 120 0.0 0.0 0.00 0.61 0.51 89 1009.2
20260506204523 9 120 0.0 1.6 0.00 1.17 0.51 88 1009.3
20260506203045 8 120 0.0 0.0 0.00 1.17 0.51 89 1009.0
20260506201504 8 120 0.0 0.0 0.03 1.17 0.51 89 1008.8
20260506200020 9 120 0.0 0.0 0.03 1.17 0.51 89 1008.6
20260506194548 9 120 0.0 0.0 0.03 1.65 0.51 87 1008.6
20260506193057 9 120 0.0 0.0 0.03 1.65 0.51 85 1008.6
20260506191541 9 120 0.0 1.6 0.00 1.63 0.51 85 1008.6
20260506190030 10 121 0.0 0.0 0.00 1.63 0.51 84 1008.4
20260506184553 10 121 0.0 3.2 0.00 1.63 0.51 83 1008.1
20260506183010 10 121 0.0 0.0 0.00 1.63 0.51 82 1007.6
20260506181530 10 120 0.0 6.4 0.00 1.63 0.51 81 1007.2
20260506180050 10 120 0.0 9.7 0.00 1.63 0.51 81 1007.0
20260506174504 10 121 0.0 19.3 0.03 1.63 0.51 80 1006.8
20260506173022 10 120 1.6 20.9 0.03 1.63 0.51 80 1006.5
20260506171547 11 120 1.6 16.1 0.03 1.63 0.51 80 1006.2
20260506170054 11 120 3.2 25.7 0.03 1.63 0.51 79 1005.9
20260506164507 13 120 0.0 1.6 0.00 1.60 0.48 86 1005.2
20260506163025 13 120 0.0 1.6 0.00 1.60 0.48 87 1004.8
20260506161556 13 120 0.0 1.6 0.00 1.60 0.48 88 1004.7
20260506160040 12 120 0.0 0.0 0.00 1.60 0.48 89 1004.4
20260506154558 12 120 0.0 0.0 0.00 1.60 0.48 89 1004.5
20260506153011 12 120 0.0 0.0 0.05 1.60 0.48 90 1004.3
20260506151519 12 120 0.0 3.2 0.36 1.60 0.48 92 1004.1
20260506150037 11 121 1.6 14.5 0.46 1.60 0.48 92 1003.9
20260506144601 11 121 0.0 16.1 0.46 1.60 0.48 92 1004.4
20260506143016 11 121 8.0 35.4 0.41 1.55 0.43 89 1004.5
20260506141537 15 120 6.4 25.7 0.10 1.24 0.13 74 1003.7
20260506140053 17 120 1.6 17.7 0.00 1.14 0.03 65 1001.8
20260506134512 17 120 0.0 8.0 0.00 1.14 0.03 61 1002.2
20260506133037 18 120 0.0 1.6 0.00 1.14 0.03 59 1002.3
20260506131612 18 120 0.0 0.0 0.00 1.14 0.03 58 1002.3
20260506130002 18 120 0.0 0.0 0.00 1.14 0.03 59 1002.5
20260506124524 18 120 0.0 0.0 0.00 1.14 0.03 59 1002.6
20260506123055 17 121 0.0 0.0 0.00 1.14 0.03 60 1002.8
20260506121514 18 120 0.0 0.0 0.00 1.14 0.03 60 1003.1
20260506120024 18 120 0.0 0.0 0.00 1.14 0.03 61 1003.1
20260506114551 17 120 0.0 0.0 0.00 1.14 0.03 60 1003.3
20260506113008 17 120 0.0 0.0 0.00 1.14 0.03 62 1003.5
20260506111534 17 120 0.0 1.6 0.00 1.14 0.03 63 1003.6
20260506110053 16 120 0.0 1.6 0.00 1.14 0.03 63 1003.9
20260506104607 16 120 0.0 0.0 0.00 1.14 0.03 66 1004.0
20260506103029 16 121 0.0 0.0 0.00 1.14 0.03 70 1004.5
20260506101549 15 121 0.0 0.0 0.00 1.14 0.03 69 1004.5
20260506100007 15 121 0.0 0.0 0.00 1.14 0.03 70 1004.5
20260506094522 15 121 0.0 0.0 0.00 1.14 0.03 71 1004.5
20260506093052 15 121 0.0 0.0 0.00 1.14 0.03 72 1004.8
20260506091506 15 120 0.0 1.6 0.00 1.14 0.03 72 1004.8
20260506090028 15 121 0.0 0.0 0.00 1.14 0.03 73 1004.6
20260506084546 15 121 0.0 0.0 0.00 1.14 0.03 76 1004.6
20260506083121 15 120 0.0 0.0 0.00 1.14 0.03 76 1004.7